EW7349 Weather Reports


Display with metric or nautical units.
time (UTC)temp
F
wind
direction
speed
MPH
gust
MPH
rain 1hr
in
rain 24hr
in
rain mn
in
humidity
%
barometer
mb
20260904171903 92 84 1.0 7.0 0.00 0.37 0.31 57 1014.2
20260904171402 91 159 1.0 5.0 0.00 0.37 0.31 58 1014.2
20260904170902 91 296 1.0 3.0 0.00 0.37 0.31 59 1014.2
20260904170402 91 276 2.0 4.0 0.00 0.37 0.31 60 1014.2
20260904165902 90 248 1.0 4.0 0.00 0.37 0.31 59 1014.2
20260904165623 91 131 1.0 4.0 0.00 0.37 0.31 56 1014.3
20260904165131 90 289 2.0 4.0 0.00 0.37 0.31 59 1014.3
20260904164400 90 71 2.0 6.0 0.00 0.37 0.31 58 1014.3
20260904163857 91 53 2.0 6.0 0.00 0.37 0.31 61 1014.5
20260904163626 90 60 2.0 6.0 0.00 0.37 0.31 60 1014.5
20260904162900 90 121 1.0 6.0 0.00 0.37 0.31 62 1014.6
20260904162359 89 145 1.0 6.0 0.00 0.37 0.31 64 1014.7
20260904161857 89 257 1.0 5.0 0.00 0.37 0.31 63 1014.6
20260904161358 89 107 1.0 5.0 0.00 0.37 0.31 64 1014.7
20260904160858 88 101 1.0 9.0 0.00 0.37 0.31 66 1014.7
20260904160719 88 174 2.0 9.0 0.00 0.37 0.31 62 1014.7
20260904160626 88 54 1.0 7.0 0.00 0.37 0.31 66 1014.6
20260904155352 87 239 1.0 7.0 0.00 0.37 0.31 68 1014.6
20260904155102 87 34 1.0 7.0 0.00 0.37 0.31 67 1014.5
20260904154339 87 117 1.0 5.0 0.00 0.37 0.31 68 1014.6
20260904153834 86 264 1.0 5.0 0.00 0.37 0.31 69 1014.7
20260904153328 84 150 1.0 7.0 0.00 0.37 0.31 73 1014.8
20260904152822 84 61 1.0 7.0 0.00 0.37 0.31 75 1014.8
20260904152805 84 51 1.0 4.0 0.00 0.37 0.31 74 1014.8
20260904151810 83 270 1.0 4.0 0.00 0.37 0.31 74 1014.7
20260904151304 83 78 1.0 6.0 0.00 0.37 0.31 75 1014.7
20260904150757 82 284 0.0 3.0 0.00 0.37 0.31 79 1014.8
20260904150252 82 149 0.0 3.0 0.00 0.37 0.31 76 1014.8
20260904145746 82 315 1.0 3.0 0.00 0.37 0.31 76 1014.8
20260904145240 82 329 1.0 5.0 0.00 0.37 0.31 78 1014.8
20260904144735 81 292 1.0 5.0 0.00 0.37 0.31 79 1014.9
20260904144449 80 246 1.0 4.0 0.00 0.37 0.31 81 1014.9
20260904143722 79 81 1.0 4.0 0.00 0.37 0.31 83 1014.9
20260904143216 79 261 1.0 4.0 0.00 0.37 0.31 85 1014.9
20260904142710 78 66 1.0 4.0 0.00 0.37 0.31 89 1014.9
20260904142204 76 44 0.0 2.0 0.00 0.37 0.31 95 1014.9
20260904141658 75 21 0.0 3.0 0.00 0.37 0.31 97 1014.9
20260904141153 75 59 0.0 3.0 0.00 0.37 0.31 96 1014.9
20260904140913 75 33 1.0 3.0 0.00 0.37 0.31 97 1014.9
20260904140140 75 56 1.0 3.0 0.00 0.37 0.31 97 1014.9
20260904135634 75 65 1.0 3.0 0.00 0.37 0.31 97 1014.9
20260904135128 74 59 0.0 3.0 0.00 0.37 0.31 97 1014.9
20260904134622 74 45 0.0 1.0 0.00 0.37 0.31 97 1015.0
20260904134117 74 45 0.0 2.0 0.00 0.37 0.31 97 1015.0
20260904133835 74 45 0.0 2.0 0.00 0.37 0.31 97 1014.9
20260904133324 74 45 0.0 0.0 0.00 0.37 0.31 96 1015.0
20260904132558 74 45 0.0 1.0 0.00 0.37 0.31 97 1015.0
20260904132053 73 45 0.0 2.0 0.00 0.37 0.31 97 1015.0
20260904131547 72 45 1.0 2.0 0.00 0.37 0.31 97 1015.0
20260904131039 72 68 0.0 1.0 0.00 0.37 0.31 96 1015.0
20260904130758 72 68 0.0 1.0 0.00 0.37 0.31 96 1015.1
20260904130028 72 68 0.0 2.0 0.00 0.37 0.31 96 1015.2
20260904125522 72 68 0.0 2.0 0.00 0.37 0.31 96 1015.2
20260904125016 71 68 0.0 2.0 0.00 0.37 0.31 96 1015.2
20260904125003 71 68 0.0 2.0 0.00 0.37 0.31 96 1015.2
20260904124455 71 66 0.0 2.0 0.00 0.37 0.31 96 1015.2
20260904123719 71 84 0.0 1.0 0.00 0.37 0.31 96 1015.2
20260904122952 71 84 0.0 1.0 0.00 0.37 0.31 96 1015.1
20260904122446 71 84 0.0 1.0 0.00 0.37 0.31 96 1015.0
20260904121941 71 84 0.0 2.0 0.00 0.37 0.31 96 1015.0
20260904121434 71 84 1.0 2.0 0.00 0.37 0.31 96 1014.9
20260904120928 71 113 1.0 4.0 0.00 0.37 0.31 96 1014.8
20260904120422 71 82 1.0 4.0 0.00 0.37 0.31 96 1014.7
20260904120135 71 90 1.0 4.0 0.00 0.37 0.31 96 1014.8
20260904115410 71 66 1.0 4.0 0.00 0.37 0.31 96 1014.9
20260904114904 71 81 1.0 2.0 0.00 0.37 0.31 96 1014.9
20260904114405 71 195 1.0 2.0 0.00 0.37 0.31 96 1014.7
20260904113904 70 62 1.0 2.0 0.00 0.37 0.31 96 1014.8
20260904113405 70 43 0.0 2.0 0.00 0.37 0.31 96 1014.4
20260904112901 70 43 0.0 2.0 0.00 0.37 0.31 96 1014.3
20260904112402 70 37 0.0 2.0 0.00 0.37 0.31 96 1014.4
20260904111901 70 89 0.0 1.0 0.00 0.37 0.31 96 1014.4
20260904111358 70 89 0.0 1.0 0.00 0.37 0.31 95 1014.3
20260904110858 70 89 0.0 1.0 0.00 0.37 0.31 95 1014.3
20260904110357 70 89 0.0 1.0 0.00 0.37 0.31 95 1014.2
20260904105853 70 89 0.0 1.0 0.00 0.37 0.31 95 1014.2
20260904105352 70 89 0.0 1.0 0.00 0.37 0.31 95 1014.1
20260904104854 70 89 0.0 0.0 0.00 0.37 0.31 95 1014.1
20260904104354 70 89 0.0 1.0 0.00 0.37 0.31 95 1014.1
20260904103854 70 89 0.0 1.0 0.00 0.37 0.31 95 1014.1
20260904103351 70 89 0.0 1.0 0.00 0.37 0.31 95 1014.0
20260904102851 70 89 0.0 1.0 0.00 0.37 0.31 95 1013.9
20260904102352 70 89 0.0 1.0 0.00 0.37 0.31 95 1014.0
20260904101849 70 89 0.0 1.0 0.00 0.37 0.31 95 1013.9
20260904101350 70 89 0.0 2.0 0.00 0.37 0.31 95 1013.9
20260904100848 70 89 0.0 2.0 0.00 0.37 0.31 95 1014.0
20260904100347 70 89 0.0 0.0 0.00 0.37 0.31 95 1013.9
20260904095848 70 89 0.0 0.0 0.00 0.37 0.31 95 1013.9
20260904095612 70 89 0.0 0.0 0.00 0.37 0.31 95 1013.9
20260904094847 70 89 0.0 0.0 0.00 0.37 0.31 95 1013.8
20260904094346 70 89 0.0 0.0 0.00 0.37 0.31 95 1013.7
20260904093847 70 89 0.0 0.0 0.00 0.37 0.31 95 1013.7
20260904093346 70 89 0.0 0.0 0.00 0.37 0.31 95 1013.5
20260904092848 70 89 0.0 0.0 0.00 0.37 0.31 95 1013.6
20260904092344 70 89 0.0 0.0 0.00 0.37 0.31 95 1013.7
20260904091843 70 89 0.0 0.0 0.00 0.37 0.31 95 1013.6
20260904091343 70 89 0.0 0.0 0.00 0.37 0.31 95 1013.7
20260904091101 70 89 0.0 0.0 0.00 0.37 0.31 95 1013.8
20260904090344 70 89 0.0 0.0 0.00 0.37 0.31 95 1013.7
20260904085842 70 89 0.0 0.0 0.00 0.37 0.31 95 1013.8
20260904085344 70 89 0.0 0.0 0.00 0.37 0.31 95 1013.9
20260904084843 70 89 0.0 0.0 0.00 0.37 0.31 95 1014.0
20260904084344 70 89 0.0 0.0 0.00 0.37 0.31 95 1013.9
20260904083839 70 89 0.0 0.0 0.00 0.37 0.31 95 1013.9
20260904083338 70 89 0.0 0.0 0.00 0.37 0.31 95 1013.8
20260904082839 70 89 0.0 0.0 0.00 0.37 0.31 95 1013.9
20260904082601 70 89 0.0 0.0 0.00 0.37 0.31 94 1013.8
20260904081840 70 89 0.0 0.0 0.00 0.37 0.31 94 1013.7
20260904081338 71 89 0.0 0.0 0.00 0.37 0.31 94 1013.7
20260904080838 71 89 0.0 0.0 0.00 0.37 0.31 94 1013.7
20260904080335 71 89 0.0 0.0 0.00 0.37 0.31 94 1013.8
20260904080111 71 89 0.0 0.0 0.00 0.37 0.31 94 1013.9
20260904075334 71 89 0.0 0.0 0.00 0.37 0.31 94 1014.0
20260904074830 71 89 0.0 0.0 0.00 0.37 0.31 94 1013.9
20260904074331 71 89 0.0 0.0 0.00 0.37 0.31 94 1013.9
20260904073832 71 89 0.0 0.0 0.00 0.37 0.31 94 1013.8
20260904073332 71 89 0.0 0.0 0.00 0.37 0.31 94 1013.8
20260904072831 71 89 0.0 0.0 0.00 0.37 0.31 94 1013.7
20260904072331 71 89 0.0 0.0 0.00 0.37 0.31 94 1013.6
20260904071831 71 89 0.0 0.0 0.00 0.37 0.31 94 1013.7
20260904071326 71 89 0.0 0.0 0.00 0.37 0.31 94 1013.7
20260904071048 71 89 0.0 0.0 0.01 0.37 0.31 94 1013.6
20260904070325 71 89 0.0 0.0 0.01 0.37 0.31 94 1013.6
20260904065825 71 89 0.0 0.0 0.01 0.37 0.31 94 1013.4
20260904065543 71 89 0.0 0.0 0.01 0.37 0.31 94 1013.2
20260904065045 71 89 0.0 0.0 0.01 0.37 0.31 94 1013.5
20260904064320 71 89 0.0 0.0 0.01 0.37 0.31 94 1013.5
20260904063818 71 89 0.0 0.0 0.01 0.37 0.31 94 1013.4
20260904063315 71 89 0.0 1.0 0.01 0.37 0.31 94 1013.5
20260904062814 72 89 0.0 2.0 0.02 0.37 0.31 94 1013.5
20260904062312 72 89 0.0 2.0 0.03 0.37 0.31 94 1013.5
20260904061809 72 61 1.0 4.0 0.03 0.37 0.31 94 1013.5
20260904061307 72 301 1.0 4.0 0.04 0.37 0.31 94 1013.1
20260904060806 72 250 0.0 2.0 0.05 0.36 0.30 93 1012.9
20260904060307 72 204 0.0 1.0 0.06 0.36 0.30 93 1012.9
20260904055806 72 204 0.0 1.0 0.08 0.36 0.30 93 1013.0
20260904055530 72 271 0.0 1.0 0.10 0.36 0.30 93 1013.1
20260904054759 72 271 0.0 2.0 0.12 0.36 0.30 93 1013.1
20260904054253 72 232 0.0 2.0 0.15 0.36 0.30 93 1013.0
20260904053747 72 189 0.0 2.0 0.18 0.36 0.30 93 1013.0
20260904053241 72 189 0.0 2.0 0.22 0.36 0.30 93 1013.5
20260904052735 72 121 0.0 0.0 0.24 0.35 0.29 92 1013.9
20260904052228 73 121 0.0 0.0 0.27 0.34 0.29 92 1014.3
20260904051723 73 121 0.0 1.0 0.27 0.33 0.28 92 1014.9
20260904051217 73 121 0.0 1.0 0.27 0.33 0.27 92 1015.0
20260904050711 73 121 0.0 1.0 0.25 0.31 0.25 92 1015.2
20260904050204 73 121 0.0 2.0 0.23 0.29 0.24 92 1015.5
20260904045659 73 121 0.0 2.0 0.22 0.28 0.22 91 1015.6
20260904045651 73 175 0.0 1.0 0.20 0.26 0.20 91 1015.9
20260904044647 73 231 0.0 1.0 0.17 0.23 0.18 91 1016.0
20260904044142 74 231 0.0 3.0 0.14 0.20 0.15 90 1016.5
20260904043636 74 234 1.0 5.0 0.11 0.17 0.11 90 1017.0
20260904043129 74 355 3.0 10.0 0.07 0.13 0.08 90 1016.9
20260904042622 75 338 4.0 10.0 0.04 0.10 0.04 90 1016.6
20260904042117 76 321 3.0 10.0 0.01 0.07 0.01 90 1016.9
20260904041611 77 123 3.0 9.0 0.00 0.06 0.00 91 1016.1
20260904041104 77 273 4.0 18.0 0.00 0.06 0.00 91 1016.1
20260904040559 78 38 3.0 18.0 0.00 0.06 0.00 92 1015.9
20260904040537 78 115 1.0 13.0 0.00 0.06 0.00 93 1015.9
20260904035547 78 88 1.0 2.0 0.01 0.06 0.06 92 1015.5
20260904035043 78 0 0.0 2.0 0.04 0.06 0.06 92 1014.7
20260904034535 78 117 0.0 0.0 0.06 0.06 0.06 92 1014.3
20260904034030 78 117 0.0 0.0 0.06 0.06 0.06 91 1014.3
20260904033522 79 117 0.0 0.0 0.06 0.06 0.06 91 1014.3
20260904033245 79 117 0.0 0.0 0.06 0.06 0.06 92 1014.3
20260904032516 79 117 0.0 0.0 0.06 0.06 0.06 91 1014.3
20260904032006 79 117 0.0 1.0 0.06 0.06 0.06 91 1014.2
20260904031459 79 117 0.0 1.0 0.06 0.06 0.06 91 1014.1
20260904030953 79 117 0.0 2.0 0.06 0.06 0.06 91 1014.1
20260904030653 80 183 1.0 2.0 0.05 0.05 0.05 91 1014.0
20260904030537 79 117 0.0 2.0 0.06 0.06 0.06 90 1014.2
20260904025435 80 148 1.0 8.0 0.04 0.04 0.05 90 1014.0
20260904024931 80 113 1.0 8.0 0.01 0.01 0.02 91 1014.4
20260904024423 80 36 1.0 3.0 0.00 0.00 0.00 90 1014.6
20260904023917 80 306 0.0 2.0 0.00 0.00 0.00 90 1014.5
20260904023411 80 198 0.0 0.0 0.00 0.00 0.00 90 1014.3
20260904023133 80 198 0.0 0.0 0.00 0.00 0.00 90 1014.2
20260904023111 80 198 0.0 0.0 0.00 0.00 0.00 90 1014.3
20260904021854 80 198 0.0 0.0 0.00 0.00 0.00 90 1014.2
20260904021347 80 198 0.0 0.0 0.00 0.00 0.00 90 1014.2
20260904020841 80 198 0.0 0.0 0.00 0.00 0.00 90 1014.3
20260904020554 80 198 0.0 0.0 0.00 0.00 0.00 90 1014.3
20260904015829 81 198 0.0 0.0 0.00 0.00 0.00 89 1014.4
20260904015323 81 198 0.0 0.0 0.00 0.00 0.00 89 1014.4
20260904014817 81 198 0.0 0.0 0.00 0.00 0.00 89 1014.4
20260904014311 81 198 0.0 0.0 0.00 0.00 0.00 89 1014.4
20260904013805 81 198 0.0 0.0 0.00 0.00 0.00 89 1014.3
20260904013300 81 198 0.0 0.0 0.00 0.00 0.00 89 1014.1
20260904012753 81 198 0.0 0.0 0.00 0.00 0.00 88 1014.1
20260904012247 81 198 0.0 0.0 0.00 0.00 0.00 88 1014.1
20260904011740 81 198 0.0 0.0 0.00 0.00 0.00 88 1014.2
20260904011235 81 198 0.0 0.0 0.00 0.00 0.00 88 1014.2
20260904010736 82 198 0.0 0.0 0.00 0.00 0.00 88 1014.3
20260904010232 82 198 0.0 0.0 0.00 0.00 0.00 87 1014.4
20260904005732 82 198 0.0 0.0 0.00 0.00 0.00 87 1014.4
20260904005235 82 198 0.0 0.0 0.00 0.00 0.00 87 1014.5
20260904004730 82 198 0.0 0.0 0.00 0.00 0.00 86 1014.5
20260904004716 82 198 0.0 0.0 0.00 0.00 0.00 86 1014.7
20260904003729 82 198 0.0 0.0 0.00 0.00 0.00 86 1014.7
20260904003229 82 198 0.0 0.0 0.00 0.00 0.00 86 1014.9
20260904002950 83 198 0.0 0.0 0.00 0.00 0.00 85 1014.9
20260904002455 83 198 0.0 0.0 0.00 0.00 0.00 85 1014.9
20260904001721 83 198 0.0 0.0 0.00 0.00 0.00 85 1014.8
20260904001221 83 198 0.0 0.0 0.00 0.00 0.00 85 1014.8
20260904000719 83 198 0.0 0.0 0.00 0.00 0.00 84 1014.8
20260904000218 83 198 0.0 0.0 0.00 0.00 0.00 84 1014.6
20260903235938 84 198 0.0 0.0 0.00 0.00 0.00 83 1014.7
20260903235437 84 198 0.0 0.0 0.00 0.00 0.00 83 1014.6
20260903234716 84 198 0.0 0.0 0.00 0.00 0.00 83 1014.5
20260903234213 84 198 0.0 0.0 0.00 0.00 0.00 82 1014.5
20260903233710 85 198 0.0 0.0 0.00 0.00 0.00 82 1014.2
20260903233210 85 198 0.0 0.0 0.00 0.00 0.00 82 1014.3
20260903232710 85 198 0.0 0.0 0.00 0.00 0.00 81 1014.2
20260903232203 85 198 0.0 0.0 0.00 0.00 0.00 81 1014.3
20260903231657 85 198 0.0 0.0 0.00 0.00 0.00 81 1014.2
20260903231151 86 198 0.0 0.0 0.00 0.00 0.00 81 1014.3
20260903230647 86 198 0.0 0.0 0.00 0.00 0.00 81 1014.3
20260903230139 86 198 0.0 0.0 0.00 0.00 0.00 80 1014.3
20260903225633 86 198 0.0 0.0 0.00 0.00 0.00 80 1014.2
20260903225127 86 198 0.0 0.0 0.00 0.00 0.00 80 1014.2
20260903224621 86 198 0.0 1.0 0.00 0.00 0.00 79 1014.2
20260903224115 86 198 0.0 1.0 0.00 0.00 0.00 79 1014.0
20260903223609 86 201 0.0 2.0 0.00 0.00 0.00 79 1014.0
20260903223103 86 205 0.0 2.0 0.00 0.00 0.00 78 1014.0
20260903222557 86 285 0.0 3.0 0.00 0.00 0.00 79 1014.0
20260903222051 86 182 0.0 3.0 0.00 0.00 0.00 78 1013.9
20260903221545 86 238 0.0 2.0 0.00 0.00 0.00 78 1013.7
20260903221039 88 238 0.0 2.0 0.00 0.00 0.00 75 1013.7
20260903220533 88 257 0.0 2.0 0.00 0.00 0.00 73 1013.7
20260903220254 88 181 1.0 6.0 0.00 0.00 0.00 74 1013.8
20260903215531 88 175 1.0 6.0 0.00 0.00 0.00 72 1013.9
20260903215252 88 139 0.0 2.0 0.00 0.00 0.00 73 1013.8
20260903214533 87 229 0.0 3.0 0.00 0.00 0.00 73 1013.9
20260903214032 87 192 1.0 3.0 0.00 0.00 0.00 73 1014.0
20260903213530 87 242 1.0 3.0 0.00 0.00 0.00 72 1014.0
20260903213030 87 286 1.0 3.0 0.00 0.00 0.00 72 1014.0
20260903212531 87 228 1.0 4.0 0.00 0.00 0.00 74 1014.0
20260903212256 87 242 1.0 4.0 0.00 0.00 0.00 71 1014.1
20260903211529 87 32 1.0 3.0 0.00 0.00 0.00 72 1014.2
20260903211030 87 343 1.0 6.0 0.00 0.00 0.00 72 1014.3
20260903210751 88 215 1.0 6.0 0.00 0.00 0.00 71 1014.3
20260903210250 88 257 1.0 5.0 0.00 0.00 0.00 72 1014.3
20260903205531 88 280 1.0 5.0 0.00 0.00 0.00 72 1014.3
20260903205032 88 264 1.0 6.0 0.00 0.00 0.00 72 1014.3
20260903204529 88 283 1.0 6.0 0.00 0.00 0.00 71 1014.3
20260903204030 88 327 1.0 9.0 0.00 0.00 0.00 75 1014.5
20260903203531 88 345 2.0 9.0 0.00 0.00 0.00 71 1014.4
20260903203026 88 221 1.0 5.0 0.00 0.00 0.00 73 1014.4
20260903202526 88 334 1.0 4.0 0.00 0.00 0.00 72 1014.5
20260903202027 88 271 1.0 4.0 0.00 0.00 0.00 72 1014.6
20260903201526 89 263 2.0 4.0 0.00 0.01 0.00 71 1014.8
20260903201248 89 225 2.0 6.0 0.00 0.01 0.00 69 1014.8
20260903200745 89 115 2.0 6.0 0.00 0.01 0.00 70 1014.9
20260903200027 90 247 1.0 4.0 0.00 0.01 0.00 68 1015.0
20260903195524 90 191 1.0 3.0 0.00 0.03 0.00 71 1015.1
20260903195025 89 355 1.0 3.0 0.00 0.04 0.00 71 1015.1
20260903194524 89 290 1.0 4.0 0.00 0.05 0.00 71 1015.2
20260903194023 89 248 1.0 4.0 0.00 0.06 0.00 70 1015.3
20260903193750 89 295 1.0 4.0 0.00 0.09 0.00 72 1015.4
20260903193020 89 169 1.0 4.0 0.00 0.11 0.00 73 1015.4
20260903192519 89 140 1.0 4.0 0.00 0.11 0.00 71 1015.6
20260903192021 89 121 1.0 4.0 0.00 0.11 0.00 71 1015.7
20260903191517 89 216 1.0 4.0 0.00 0.11 0.00 69 1015.8
20260903191018 89 204 1.0 3.0 0.00 0.11 0.00 73 1015.7
20260903190519 88 115 1.0 4.0 0.00 0.11 0.00 73 1015.8
20260903190019 87 262 1.0 4.0 0.00 0.11 0.00 74 1015.9
20260903185518 86 243 1.0 4.0 0.00 0.11 0.00 75 1016.0
20260903185236 85 45 1.0 3.0 0.00 0.11 0.00 77 1016.0
20260903184731 85 265 1.0 3.0 0.00 0.11 0.00 76 1016.0
20260903184011 85 232 1.0 4.0 0.00 0.11 0.00 77 1016.1
20260903183513 86 317 1.0 4.0 0.00 0.11 0.00 76 1016.0
20260903183013 85 227 1.0 4.0 0.00 0.11 0.00 77 1016.1
20260903182733 85 283 1.0 4.0 0.00 0.11 0.00 77 1016.2
20260903182235 85 263 1.0 4.0 0.00 0.11 0.00 78 1016.3
20260903181506 84 311 0.0 3.0 0.00 0.11 0.00 80 1015.9
20260903181219 85 119 0.0 3.0 0.00 0.11 0.00 79 1015.8
20260903180453 84 250 0.0 2.0 0.00 0.11 0.00 76 1016.1
20260903175948 84 248 1.0 2.0 0.00 0.11 0.00 77 1016.4
20260903175441 84 69 0.0 2.0 0.00 0.11 0.00 78 1016.5
20260903174934 85 296 0.0 2.0 0.00 0.11 0.00 76 1016.8
20260903174427 84 298 1.0 2.0 0.00 0.11 0.00 78 1016.8
20260903173921 84 298 1.0 2.0 0.00 0.11 0.00 76 1016.8
20260903173415 85 10 1.0 2.0 0.00 0.11 0.00 77 1016.8
20260903172909 85 274 1.0 3.0 0.00 0.11 0.00 74 1016.9